N609KB PAJN-CYXS

Flight info

Callsign N609KB
Flight time 1h 56m
Altitude 37000
Route DCT
Aircraft STAR/L-SDFGRWY/S

Departure

Time 2026-05-04 22:45
Airport Juneau International Airport (PAJN)

Arrival

Time 2026-05-05 00:42
Airport Prince George (International) Airport (CYXS)
Time Latitude Longitude Altitude Speed Heading
2026-05-04 22:36 58.35568 -134.56446 30 ft 0 kts 105°
2026-05-04 22:42 58.35564 -134.56431 30 ft 0 kts 132°
2026-05-04 22:42 58.35555 -134.56420 30 ft 8 kts 150°
2026-05-04 22:43 58.35508 -134.56367 30 ft 9 kts 143°
2026-05-04 22:43 58.35423 -134.56292 30 ft 17 kts 123°
2026-05-04 22:43 58.35383 -134.56016 30 ft 21 kts 105°
2026-05-04 22:43 58.35337 -134.55678 30 ft 31 kts 103°
2026-05-04 22:44 58.35295 -134.55375 30 ft 16 kts 106°
2026-05-04 22:44 58.35245 -134.55283 30 ft 9 kts 179°
2026-05-04 22:44 58.35181 -134.55343 29 ft 8 kts 250°
2026-05-04 22:44 58.35207 -134.55569 27 ft 36 kts 284°
2026-05-04 22:45 58.35304 -134.56323 31 ft 80 kts 284°
2026-05-04 22:45 58.35752 -134.59120 619 ft 135 kts 286°
2026-05-04 22:45 58.36010 -134.60949 1101 ft 152 kts 270°
2026-05-04 22:46 58.35488 -134.62636 1824 ft 147 kts 207°
2026-05-04 22:46 58.34534 -134.62950 2695 ft 142 kts 170°
2026-05-04 22:46 58.33542 -134.61957 2621 ft 191 kts 130°
2026-05-04 22:46 58.33040 -134.59434 2811 ft 206 kts 99°
2026-05-04 22:47 58.32753 -134.56707 3344 ft 211 kts 101°
2026-05-04 22:47 58.32461 -134.53939 3818 ft 216 kts 102°
2026-05-04 22:47 58.32023 -134.51276 4403 ft 217 kts 108°
2026-05-04 22:47 58.31469 -134.48334 4375 ft 234 kts 111°
2026-05-04 22:48 58.30920 -134.46114 6179 ft 138 kts 115°
2026-05-04 22:48 58.30718 -134.44286 6613 ft 157 kts 96°
2026-05-04 22:48 58.30452 -134.42071 6704 ft 184 kts 107°
2026-05-04 22:48 58.30073 -134.39872 7438 ft 126 kts 103°
2026-05-04 22:49 58.29859 -134.38029 7740 ft 153 kts 107°
2026-05-04 22:49 58.29370 -134.36187 8117 ft 162 kts 119°
2026-05-04 22:49 58.28788 -134.34394 8759 ft 159 kts 122°
2026-05-04 22:49 58.28246 -134.32450 6641 ft 170 kts 89°
2026-05-04 22:50 58.29138 -134.32185 4226 ft 233 kts 307°
2026-05-04 22:50 58.30028 -134.34459 4410 ft 197 kts 307°
2026-05-04 22:50 58.30469 -134.35579 4464 ft 182 kts 307°
2026-05-04 22:51 58.35583 -134.56554 30 ft 0 kts 105°
2026-05-04 22:58 58.35582 -134.56549 30 ft 6 kts 108°
2026-05-04 22:58 58.35516 -134.56392 30 ft 20 kts 129°
2026-05-04 22:58 58.35417 -134.56256 30 ft 20 kts 111°
2026-05-04 22:59 58.35370 -134.55885 30 ft 31 kts 105°
2026-05-04 22:59 58.35324 -134.55587 30 ft 14 kts 105°
2026-05-04 22:59 58.35314 -134.55519 30 ft 0 kts 105°
2026-05-04 22:59 58.35313 -134.55517 30 ft 2 kts 105°
2026-05-04 23:00 58.35288 -134.55353 30 ft 12 kts 117°
2026-05-04 23:00 58.35240 -134.55296 30 ft 20 kts 187°
2026-05-04 23:00 58.35229 -134.55740 29 ft 57 kts 286°
2026-05-04 23:00 58.35363 -134.56687 30 ft 94 kts 287°
2026-05-04 23:01 58.35554 -134.58017 308 ft 121 kts 280°
2026-05-04 23:01 58.35719 -134.59731 745 ft 138 kts 275°
2026-05-04 23:01 58.35445 -134.61545 1259 ft 158 kts 233°
2026-05-04 23:01 58.34716 -134.63136 1948 ft 161 kts 230°
2026-05-04 23:02 58.33981 -134.64835 2503 ft 173 kts 230°
2026-05-04 23:02 58.33201 -134.66609 3188 ft 175 kts 227°
2026-05-04 23:02 58.32325 -134.68211 3892 ft 175 kts 211°
2026-05-04 23:02 58.31183 -134.69018 4595 ft 177 kts 189°
2026-05-04 23:03 58.29965 -134.69120 5403 ft 174 kts 180°
2026-05-04 23:03 58.28758 -134.69061 6192 ft 175 kts 179°
2026-05-04 23:03 58.27553 -134.68898 7038 ft 169 kts 178°
2026-05-04 23:03 58.26406 -134.68696 7920 ft 163 kts 177°
2026-05-04 23:04 58.25297 -134.68477 8785 ft 158 kts 177°
2026-05-04 23:04 58.24215 -134.68252 9638 ft 155 kts 176°
2026-05-04 23:04 58.23151 -134.68005 10443 ft 154 kts 172°
2026-05-04 23:04 58.22291 -134.66814 11179 ft 161 kts 123°
2026-05-04 23:05 58.22046 -134.64723 11894 ft 165 kts 97°
2026-05-04 23:05 58.21862 -134.62566 12604 ft 167 kts 106°
2026-05-04 23:05 58.21540 -134.60447 13322 ft 168 kts 114°
2026-05-04 23:05 58.21130 -134.58360 14035 ft 170 kts 116°
2026-05-04 23:06 58.20643 -134.56325 14657 ft 170 kts 124°
2026-05-04 23:06 58.20057 -134.54377 15276 ft 171 kts 127°
2026-05-04 23:06 58.19483 -134.52384 15900 ft 173 kts 125°
2026-05-04 23:06 58.18928 -134.50339 16525 ft 175 kts 125°
2026-05-04 23:07 58.18362 -134.48312 17147 ft 177 kts 127°
2026-05-04 23:07 58.17772 -134.46249 17780 ft 179 kts 127°
2026-05-04 23:07 58.17181 -134.44153 18424 ft 181 kts 127°
2026-05-04 23:07 58.16588 -134.42035 18960 ft 184 kts 128°
2026-05-04 23:08 58.15980 -134.39886 19506 ft 186 kts 128°
2026-05-04 23:08 58.15365 -134.37712 20052 ft 189 kts 129°
2026-05-04 23:08 58.14742 -134.35508 20600 ft 191 kts 129°
2026-05-04 23:08 58.14110 -134.33275 21149 ft 194 kts 129°
2026-05-04 23:09 58.13468 -134.31010 21702 ft 197 kts 130°
2026-05-04 23:09 58.12817 -134.28716 22257 ft 199 kts 130°
2026-05-04 23:09 58.12156 -134.26390 22817 ft 202 kts 130°
2026-05-04 23:09 58.11486 -134.24034 23375 ft 205 kts 130°
2026-05-04 23:10 58.10806 -134.21644 23890 ft 208 kts 130°
2026-05-04 23:10 58.10118 -134.19229 24334 ft 209 kts 130°
2026-05-04 23:10 58.09424 -134.16796 24804 ft 210 kts 130°
2026-05-04 23:10 58.08723 -134.14351 25224 ft 213 kts 130°
2026-05-04 23:11 58.08016 -134.11864 25681 ft 215 kts 129°
2026-05-04 23:11 58.07304 -134.09369 26136 ft 216 kts 129°
2026-05-04 23:11 58.06827 -134.07710 26437 ft 217 kts 129°
2026-05-04 23:11 58.05867 -134.04366 27034 ft 219 kts 129°
2026-05-04 23:12 58.05138 -134.01821 27485 ft 221 kts 129°
2026-05-04 23:12 58.04388 -133.99246 27890 ft 227 kts 128°
2026-05-04 23:12 58.03643 -133.96604 28346 ft 229 kts 128°
2026-05-04 23:12 58.02882 -133.93995 28825 ft 224 kts 129°
2026-05-04 23:13 58.02366 -133.92225 29020 ft 231 kts 127°
2026-05-04 23:13 58.01610 -133.89523 29391 ft 232 kts 128°
2026-05-04 23:13 58.00838 -133.86895 29806 ft 232 kts 129°
2026-05-04 23:13 58.00053 -133.84212 30230 ft 235 kts 128°
2026-05-04 23:14 57.99274 -133.81488 30575 ft 237 kts 128°
2026-05-04 23:14 57.98483 -133.78759 30917 ft 238 kts 128°
2026-05-04 23:14 57.97684 -133.76025 31260 ft 239 kts 128°
2026-05-04 23:14 57.96886 -133.73269 31577 ft 240 kts 128°
2026-05-04 23:15 57.96081 -133.70498 31890 ft 242 kts 128°
2026-05-04 23:15 57.95270 -133.67717 32213 ft 243 kts 128°
2026-05-04 23:15 57.94452 -133.64915 32529 ft 245 kts 128°
2026-05-04 23:15 57.93628 -133.62103 32781 ft 246 kts 127°
2026-05-04 23:16 57.92801 -133.59261 33054 ft 248 kts 127°
2026-05-04 23:16 57.91980 -133.56443 33331 ft 249 kts 127°
2026-05-04 23:16 57.91137 -133.53588 33600 ft 250 kts 127°
2026-05-04 23:16 57.90295 -133.50715 33855 ft 252 kts 127°
2026-05-04 23:17 57.89444 -133.47815 34142 ft 253 kts 127°
2026-05-04 23:17 57.88593 -133.44913 34370 ft 254 kts 127°
2026-05-04 23:17 57.87731 -133.42004 34599 ft 256 kts 127°
2026-05-04 23:17 57.86869 -133.39062 34809 ft 257 kts 128°
2026-05-04 23:18 57.85990 -133.36108 34979 ft 261 kts 128°
2026-05-04 23:18 57.85097 -133.33084 35070 ft 268 kts 128°
2026-05-04 23:18 57.84176 -133.29970 35112 ft 277 kts 127°
2026-05-04 23:18 57.83241 -133.26800 35129 ft 285 kts 127°
2026-05-04 23:19 57.82262 -133.23524 35136 ft 291 kts 127°
2026-05-04 23:19 57.81271 -133.20175 35148 ft 296 kts 127°
2026-05-04 23:19 57.79215 -133.13282 35149 ft 305 kts 127°
2026-05-04 23:20 57.77119 -133.06268 35144 ft 312 kts 126°
2026-05-04 23:20 57.74985 -132.99145 35162 ft 316 kts 126°
2026-05-04 23:21 57.72816 -132.91925 35158 ft 320 kts 126°
2026-05-04 23:21 57.70625 -132.84669 35159 ft 321 kts 126°
2026-05-04 23:22 57.68440 -132.77445 35163 ft 322 kts 126°
2026-05-04 23:22 57.66225 -132.70143 35162 ft 323 kts 126°
2026-05-04 23:23 57.63999 -132.62833 35175 ft 324 kts 126°
2026-05-04 23:23 57.61769 -132.55539 35158 ft 324 kts 126°
2026-05-04 23:24 57.59531 -132.48222 35163 ft 325 kts 126°
2026-05-04 23:24 57.57287 -132.40920 35166 ft 325 kts 126°
2026-05-04 23:25 57.55033 -132.33612 35165 ft 325 kts 126°
2026-05-04 23:25 57.52773 -132.26298 35167 ft 326 kts 126°
2026-05-04 23:26 57.50512 -132.19016 35166 ft 326 kts 126°
2026-05-04 23:26 57.48244 -132.11721 35156 ft 326 kts 126°
2026-05-04 23:27 57.45968 -132.04431 35154 ft 326 kts 126°
2026-05-04 23:27 57.43682 -131.97126 35145 ft 328 kts 126°
2026-05-04 23:28 57.41384 -131.89809 35141 ft 328 kts 126°
2026-05-04 23:28 57.39076 -131.82486 35139 ft 329 kts 126°
2026-05-04 23:29 57.36765 -131.75161 35129 ft 330 kts 126°
2026-05-04 23:29 57.34429 -131.67795 35128 ft 332 kts 126°
2026-05-04 23:30 57.32098 -131.60467 35129 ft 333 kts 126°
2026-05-04 23:30 57.29743 -131.53086 35118 ft 333 kts 125°
2026-05-04 23:31 57.27379 -131.45691 35122 ft 334 kts 126°
2026-05-04 23:31 57.25016 -131.38330 35124 ft 333 kts 126°
2026-05-04 23:32 57.22650 -131.30984 35124 ft 334 kts 126°
2026-05-04 23:32 57.20269 -131.23606 35122 ft 334 kts 126°
2026-05-04 23:33 57.17892 -131.16269 35123 ft 332 kts 126°
2026-05-04 23:33 57.15517 -131.08958 35122 ft 332 kts 126°
2026-05-04 23:34 57.13139 -131.01663 35122 ft 333 kts 125°
2026-05-04 23:34 57.10766 -130.94407 35110 ft 332 kts 126°
2026-05-04 23:35 57.08362 -130.87074 35110 ft 333 kts 126°
2026-05-04 23:35 57.05966 -130.79788 35110 ft 333 kts 126°
2026-05-04 23:36 57.03577 -130.72551 35096 ft 333 kts 126°
2026-05-04 23:36 57.01177 -130.65299 35096 ft 332 kts 126°
2026-05-04 23:37 56.98770 -130.58044 35072 ft 333 kts 126°
2026-05-04 23:37 56.96354 -130.50788 35082 ft 334 kts 125°
2026-05-04 23:38 56.93924 -130.43516 35079 ft 335 kts 126°
2026-05-04 23:38 56.91487 -130.36240 35072 ft 335 kts 126°
2026-05-04 23:39 56.89044 -130.28966 35077 ft 335 kts 126°
2026-05-04 23:39 56.86600 -130.21720 35075 ft 335 kts 126°
2026-05-04 23:40 56.84142 -130.14444 35074 ft 337 kts 126°
2026-05-04 23:40 56.81671 -130.07160 35069 ft 338 kts 126°
2026-05-04 23:41 56.79194 -129.99874 35068 ft 337 kts 126°
2026-05-04 23:41 56.76737 -129.92675 35070 ft 336 kts 126°
2026-05-04 23:42 56.74261 -129.85434 35066 ft 337 kts 126°
2026-05-04 23:42 56.71779 -129.78205 35060 ft 337 kts 126°
2026-05-04 23:43 56.69290 -129.70971 35067 ft 338 kts 126°
2026-05-04 23:43 56.66781 -129.63706 35067 ft 340 kts 126°
2026-05-04 23:44 56.64241 -129.56362 35050 ft 343 kts 125°
2026-05-04 23:44 56.61695 -129.49044 35054 ft 343 kts 125°
2026-05-04 23:45 56.59134 -129.41694 35043 ft 344 kts 125°
2026-05-04 23:45 56.56573 -129.34366 35047 ft 343 kts 125°
2026-05-04 23:46 56.54018 -129.27074 35049 ft 343 kts 125°
2026-05-04 23:46 56.51456 -129.19778 35036 ft 344 kts 125°
2026-05-04 23:47 56.48870 -129.12472 35027 ft 345 kts 125°
2026-05-04 23:47 56.46296 -129.05183 35026 ft 343 kts 125°
2026-05-04 23:48 56.43733 -128.97952 35035 ft 341 kts 125°
2026-05-04 23:48 56.41173 -128.90760 35037 ft 340 kts 125°
2026-05-04 23:49 56.38608 -128.83576 35034 ft 340 kts 125°
2026-05-04 23:49 56.36056 -128.76449 35030 ft 339 kts 125°
2026-05-04 23:50 56.33494 -128.69312 35035 ft 339 kts 125°
2026-05-04 23:50 56.30923 -128.62168 35035 ft 341 kts 125°
2026-05-04 23:51 56.28336 -128.55006 35043 ft 341 kts 125°
2026-05-04 23:51 56.25747 -128.47863 35051 ft 341 kts 125°
2026-05-04 23:52 56.23146 -128.40703 35048 ft 343 kts 125°
2026-05-04 23:52 56.20531 -128.33525 35041 ft 343 kts 125°
2026-05-04 23:53 56.17926 -128.26392 35048 ft 340 kts 126°
2026-05-04 23:53 56.15333 -128.19330 35042 ft 339 kts 125°
2026-05-04 23:54 56.12740 -128.12264 35045 ft 341 kts 125°
2026-05-04 23:54 56.10125 -128.05166 35047 ft 342 kts 125°
2026-05-04 23:55 56.07495 -127.98058 35045 ft 343 kts 125°
2026-05-04 23:56 56.03548 -127.87419 35050 ft 344 kts 125°
2026-05-04 23:56 56.00891 -127.80291 35072 ft 345 kts 125°
2026-05-04 23:57 55.98225 -127.73148 35054 ft 346 kts 124°
2026-05-04 23:57 55.96000 -127.67204 35056 ft 347 kts 124°
2026-05-04 23:58 55.93295 -127.60001 35057 ft 347 kts 124°
2026-05-04 23:58 55.90621 -127.52902 35057 ft 348 kts 124°
2026-05-04 23:59 55.87918 -127.45757 35051 ft 346 kts 124°
2026-05-04 23:59 55.85223 -127.38635 35055 ft 346 kts 124°
2026-05-05 00:00 55.82523 -127.31535 35055 ft 346 kts 124°
2026-05-05 00:00 55.79829 -127.24460 35056 ft 346 kts 125°
2026-05-05 00:01 55.77122 -127.17371 35050 ft 347 kts 125°
2026-05-05 00:01 55.74405 -127.10283 35047 ft 348 kts 125°
2026-05-05 00:02 55.71679 -127.03191 35042 ft 348 kts 125°
2026-05-05 00:02 55.68946 -126.96103 35042 ft 348 kts 125°
2026-05-05 00:03 55.66211 -126.89027 35045 ft 348 kts 125°
2026-05-05 00:03 55.63464 -126.81943 35037 ft 349 kts 124°
2026-05-05 00:04 55.60710 -126.74863 35042 ft 349 kts 124°
2026-05-05 00:04 55.57967 -126.67824 35035 ft 350 kts 125°
2026-05-05 00:05 55.55201 -126.60750 35037 ft 350 kts 125°
2026-05-05 00:05 55.52426 -126.53676 35037 ft 350 kts 125°
2026-05-05 00:06 55.49645 -126.46607 35035 ft 350 kts 125°
2026-05-05 00:06 55.46863 -126.39558 35036 ft 350 kts 124°
2026-05-05 00:07 55.44077 -126.32511 35029 ft 350 kts 124°
2026-05-05 00:07 55.41287 -126.25476 35025 ft 350 kts 124°
2026-05-05 00:08 55.38495 -126.18459 35025 ft 350 kts 125°
2026-05-05 00:08 55.35699 -126.11452 35029 ft 350 kts 125°
2026-05-05 00:09 55.32902 -126.04460 35030 ft 349 kts 125°
2026-05-05 00:09 55.30097 -125.97477 35028 ft 350 kts 124°
2026-05-05 00:10 55.27282 -125.90471 35035 ft 352 kts 124°
2026-05-05 00:10 55.24465 -125.83496 35030 ft 353 kts 124°
2026-05-05 00:11 55.21620 -125.76466 35027 ft 353 kts 124°
2026-05-05 00:11 55.18774 -125.69452 35027 ft 354 kts 124°
2026-05-05 00:12 55.15917 -125.62432 35027 ft 355 kts 124°
2026-05-05 00:12 55.13043 -125.55398 35031 ft 356 kts 124°
2026-05-05 00:12 55.11608 -125.51944 33784 ft 378 kts 128°
2026-05-05 00:13 55.10152 -125.48612 34753 ft 336 kts 123°
2026-05-05 00:13 55.08873 -125.45222 34891 ft 334 kts 120°
2026-05-05 00:13 55.07523 -125.41897 34958 ft 337 kts 126°
2026-05-05 00:14 55.04782 -125.35233 35007 ft 341 kts 124°
2026-05-05 00:14 55.01987 -125.28484 35020 ft 345 kts 123°
2026-05-05 00:15 54.99162 -125.21671 35023 ft 348 kts 124°
2026-05-05 00:15 54.96312 -125.14799 35024 ft 351 kts 124°
2026-05-05 00:16 54.93427 -125.07853 34574 ft 363 kts 123°
2026-05-05 00:16 54.91917 -125.04245 34096 ft 373 kts 124°
2026-05-05 00:16 54.90379 -125.00557 33568 ft 380 kts 123°
2026-05-05 00:16 54.88817 -124.96824 33034 ft 383 kts 124°
2026-05-05 00:17 54.87250 -124.93083 32513 ft 383 kts 124°
2026-05-05 00:17 54.85702 -124.89390 32005 ft 382 kts 124°
2026-05-05 00:17 54.84114 -124.85614 31494 ft 382 kts 124°
2026-05-05 00:17 54.82550 -124.81893 31003 ft 382 kts 124°
2026-05-05 00:18 54.81006 -124.78231 30526 ft 381 kts 124°
2026-05-05 00:18 54.79441 -124.74522 30043 ft 381 kts 124°
2026-05-05 00:18 54.77856 -124.70777 29478 ft 380 kts 123°
2026-05-05 00:18 54.76317 -124.67134 28948 ft 379 kts 123°
2026-05-05 00:19 54.74756 -124.63454 28409 ft 378 kts 123°
2026-05-05 00:19 54.73201 -124.59791 27880 ft 377 kts 123°
2026-05-05 00:19 54.71650 -124.56142 27361 ft 375 kts 123°
2026-05-05 00:19 54.70104 -124.52512 26853 ft 374 kts 123°
2026-05-05 00:20 54.68560 -124.48892 26349 ft 372 kts 123°
2026-05-05 00:20 54.67028 -124.45303 25857 ft 370 kts 123°
2026-05-05 00:20 54.65501 -124.41734 25382 ft 368 kts 123°
2026-05-05 00:20 54.63984 -124.38189 24905 ft 366 kts 123°
2026-05-05 00:21 54.62471 -124.34664 24439 ft 365 kts 122°
2026-05-05 00:21 54.60961 -124.31146 23993 ft 364 kts 122°
2026-05-05 00:21 54.59454 -124.27643 23527 ft 362 kts 122°
2026-05-05 00:21 54.57959 -124.24170 22986 ft 360 kts 122°
2026-05-05 00:22 54.56468 -124.20715 22457 ft 358 kts 122°
2026-05-05 00:22 54.54985 -124.17281 21957 ft 356 kts 122°
2026-05-05 00:22 54.53527 -124.13911 21466 ft 355 kts 122°
2026-05-05 00:22 54.52058 -124.10516 20960 ft 353 kts 122°
2026-05-05 00:23 54.50595 -124.07143 20467 ft 350 kts 122°
2026-05-05 00:23 54.49139 -124.03793 19979 ft 348 kts 123°
2026-05-05 00:23 54.47695 -124.00469 19499 ft 345 kts 123°
2026-05-05 00:23 54.46261 -123.97178 19028 ft 343 kts 123°
2026-05-05 00:24 54.44836 -123.93909 18578 ft 340 kts 123°
2026-05-05 00:24 54.43432 -123.90695 18306 ft 331 kts 123°
2026-05-05 00:24 54.42070 -123.87580 18162 ft 320 kts 123°
2026-05-05 00:24 54.40754 -123.84570 18095 ft 310 kts 123°
2026-05-05 00:25 54.39475 -123.81651 17942 ft 306 kts 123°
2026-05-05 00:25 54.38177 -123.78682 17339 ft 316 kts 123°
2026-05-05 00:25 54.36839 -123.75646 16747 ft 322 kts 124°
2026-05-05 00:25 54.35492 -123.72585 16160 ft 319 kts 124°
2026-05-05 00:26 54.34170 -123.69578 15592 ft 314 kts 124°
2026-05-05 00:26 54.32863 -123.66616 15029 ft 309 kts 125°
2026-05-05 00:26 54.31573 -123.63693 14480 ft 305 kts 125°
2026-05-05 00:26 54.30301 -123.60814 13943 ft 301 kts 126°
2026-05-05 00:27 54.29046 -123.57978 13347 ft 297 kts 126°
2026-05-05 00:27 54.27804 -123.55177 12742 ft 294 kts 126°
2026-05-05 00:27 54.26580 -123.52409 12157 ft 290 kts 126°
2026-05-05 00:27 54.25363 -123.49672 11576 ft 287 kts 126°
2026-05-05 00:28 54.24175 -123.46998 11020 ft 284 kts 126°
2026-05-05 00:28 54.22986 -123.44325 10461 ft 279 kts 125°
2026-05-05 00:28 54.21836 -123.41739 9905 ft 268 kts 126°
2026-05-05 00:28 54.20719 -123.39241 9303 ft 260 kts 126°
2026-05-05 00:29 54.19636 -123.36815 8710 ft 254 kts 125°
2026-05-05 00:29 54.18580 -123.34425 8123 ft 249 kts 125°
2026-05-05 00:29 54.17522 -123.32090 7549 ft 247 kts 126°
2026-05-05 00:29 54.16494 -123.29772 6986 ft 243 kts 125°
2026-05-05 00:30 54.15469 -123.27488 6431 ft 242 kts 126°
2026-05-05 00:30 54.14445 -123.25225 5943 ft 237 kts 124°
2026-05-05 00:30 54.13485 -123.23061 5710 ft 220 kts 125°
2026-05-05 00:30 54.12545 -123.20953 5608 ft 230 kts 126°
2026-05-05 00:31 54.11536 -123.18740 5557 ft 240 kts 126°
2026-05-05 00:31 54.10508 -123.16453 5532 ft 246 kts 125°
2026-05-05 00:31 54.09465 -123.14124 5518 ft 248 kts 125°
2026-05-05 00:31 54.08422 -123.11812 5514 ft 244 kts 125°
2026-05-05 00:32 54.07400 -123.09541 5510 ft 239 kts 126°
2026-05-05 00:32 54.06385 -123.07306 5508 ft 238 kts 126°
2026-05-05 00:32 54.05380 -123.05080 5510 ft 236 kts 126°
2026-05-05 00:32 54.04391 -123.02895 5508 ft 236 kts 125°
2026-05-05 00:33 54.03396 -123.00686 5509 ft 234 kts 125°
2026-05-05 00:33 54.02405 -122.98496 5508 ft 232 kts 126°
2026-05-05 00:33 54.01414 -122.96329 5509 ft 231 kts 126°
2026-05-05 00:33 54.00433 -122.94165 5508 ft 230 kts 125°
2026-05-05 00:34 53.99482 -122.92059 5507 ft 217 kts 126°
2026-05-05 00:34 53.98586 -122.90106 5508 ft 203 kts 126°
2026-05-05 00:34 53.97747 -122.88255 5302 ft 198 kts 124°
2026-05-05 00:34 53.96901 -122.86393 4910 ft 200 kts 127°
2026-05-05 00:35 53.96034 -122.84543 4514 ft 199 kts 127°
2026-05-05 00:35 53.95165 -122.82731 4114 ft 197 kts 126°
2026-05-05 00:35 53.94301 -122.80975 3830 ft 188 kts 127°
2026-05-05 00:35 53.93511 -122.79386 3704 ft 160 kts 127°
2026-05-05 00:36 53.92825 -122.78052 3643 ft 148 kts 127°
2026-05-05 00:36 53.92150 -122.76730 3614 ft 148 kts 127°
2026-05-05 00:36 53.91473 -122.75404 3466 ft 153 kts 127°
2026-05-05 00:36 53.90701 -122.74154 3376 ft 154 kts 148°
2026-05-05 00:37 53.89713 -122.73490 3312 ft 151 kts 163°
2026-05-05 00:37 53.88665 -122.73311 3302 ft 152 kts 178°
2026-05-05 00:37 53.87630 -122.73294 3308 ft 152 kts 177°
2026-05-05 00:37 53.86575 -122.73247 3300 ft 151 kts 176°
2026-05-05 00:38 53.85527 -122.73200 3284 ft 150 kts 177°
2026-05-05 00:38 53.84489 -122.73151 3193 ft 148 kts 175°
2026-05-05 00:38 53.83487 -122.73077 3104 ft 137 kts 159°
2026-05-05 00:38 53.82819 -122.72104 2996 ft 130 kts 107°
2026-05-05 00:39 53.82477 -122.70683 2933 ft 141 kts 102°
2026-05-05 00:39 53.82225 -122.69133 2977 ft 128 kts 88°
2026-05-05 00:39 53.82141 -122.67628 2944 ft 129 kts 83°
2026-05-05 00:39 53.82198 -122.66672 3022 ft 120 kts 62°
2026-05-05 00:40 53.82801 -122.65792 2883 ft 126 kts
2026-05-05 00:40 53.83676 -122.65631 2805 ft 126 kts
2026-05-05 00:40 53.84561 -122.65596 2709 ft 126 kts 351°
2026-05-05 00:40 53.85415 -122.65781 2593 ft 122 kts 346°
2026-05-05 00:41 53.86199 -122.66030 2453 ft 106 kts 345°
2026-05-05 00:41 53.86896 -122.66216 2256 ft 97 kts 344°
2026-05-05 00:41 53.87498 -122.66396 2202 ft 76 kts 346°
2026-05-05 00:41 53.87977 -122.66522 2209 ft 65 kts 348°
2026-05-05 00:42 53.88377 -122.66648 2214 ft 49 kts 349°
2026-05-05 00:42 53.88637 -122.66743 2220 ft 21 kts 313°
2026-05-05 00:42 53.88647 -122.66880 2219 ft 15 kts 260°
2026-05-05 00:42 53.88630 -122.67058 2219 ft 11 kts 261°
2026-05-05 00:43 53.88610 -122.67266 2219 ft 20 kts 260°
2026-05-05 00:43 53.88581 -122.67472 2229 ft 12 kts 226°
2026-05-05 00:43 53.88447 -122.67621 2228 ft 30 kts 213°
2026-05-05 00:43 53.88319 -122.67767 2227 ft 14 kts 213°
2026-05-05 00:44 53.88280 -122.67732 2229 ft 8 kts 28°
2026-05-05 00:44 53.88306 -122.67705 2229 ft 0 kts 31°